Location: *
(57.8420°S, 159.8600°W)
Time: 05:16:13
(UTC+00:00)

Cosmos 1867 - Pass Details

Date: 18 May 2021
Orbit: 773 x 802 km, 65.0° (Epoch: 20 June)

Event Time Altitude Azimuth Distance (km) Brightness Sun altitude
Rises 04:00:44 0° 232° (SW) 3,294 7.3 -12.0°
Reaches altitude 10° 04:03:10 10° 232° (SW) 2,360 6.5 -12.3°
Maximum altitude 04:08:37 84° 320° (NW) 799 3.6 -13.0°
Drops below altitude 10° 04:14:00 10° 46° (NE) 2,343 5.7 -13.7°
Sets 04:16:24 0° 46° (NE) 3,268 6.5 -14.0°
